Location: Unspecified
(29.9680°N, 0.0000°E)
Time: 14:41:51
(UTC+00:00)

Vanguard 1 - Visible Passes

Search period start: 19 June 2019 00:00
Search period end: 29 June 2019 00:00
Orbit: 654 x 3829 km, 34.2° (Epoch: 18 June)

Date Brightness Start Highest point End Pass type
(mag) Time Alt. Az. Time Alt. Az. Time Alt. Az.
19 Jun 12.0 02:29:52 35° SW 02:39:03 66° SSE 02:49:47 10° ENE visible
20 Jun 12.7 00:36:14 39° SE 00:36:14 39° SE 00:49:06 10° E visible
20 Jun 11.8 02:48:52 28° SW 03:00:28 77° SSE 03:10:54 10° ENE visible
20 Jun 13.7 22:42:30 11° ESE 22:42:30 11° ESE 22:43:24 10° ESE visible
21 Jun 12.5 00:55:08 47° SSE 00:57:21 49° SSE 01:10:47 10° E visible
21 Jun 11.8 03:07:45 21° WSW 03:21:52 88° SSE 03:31:57 10° ENE visible
21 Jun 13.4 23:01:17 20° ESE 23:01:17 20° ESE 23:07:18 10° E visible
22 Jun 12.3 01:13:54 50° SSW 01:18:50 59° SSE 01:32:13 10° ENE visible
22 Jun 11.8 03:26:31 13° WSW 03:43:20 83° NNW 03:53:01 10° ENE visible
22 Jun 13.1 23:19:55 31° ESE 23:19:55 31° ESE 23:30:02 10° E visible
23 Jun 12.2 01:32:30 45° SW 01:40:21 70° SSE 01:53:29 10° ENE visible
23 Jun 11.8 03:46:57 10° W 04:04:47 77° NNW 04:14:04 10° ENE visible
23 Jun14.021:25:47E21:25:47E20:55:20Svisible
23 Jun 12.8 23:38:21 42° SE 23:38:21 42° SE 23:52:08 10° E visible
24 Jun 12.1 01:50:56 37° WSW 02:01:52 80° SSE 02:14:40 10° ENE visible
24 Jun 11.8 04:09:13 10° W 04:26:18 73° N 04:35:09 10° ENE visible
24 Jun 13.7 21:44:00 12° E 21:44:00 12° E 21:45:42 10° E visible
24 Jun 12.6 23:56:33 52° SSE 23:57:47 53° SSE 00:13:52 10° ENE visible
25 Jun 12.1 02:09:06 26° WSW 02:23:25 89° SSE 02:35:48 10° ENE visible
25 Jun 11.7 04:31:30 10° W 04:47:49 71° N 04:56:16 10° E visible
25 Jun 13.4 21:35:57 10° S 22:01:52 22° ESE 22:09:31 10° E visible
26 Jun 12.5 00:14:22 55° S 00:19:18 63° SSE 00:35:21 10° ENE visible
26 Jun 12.1 02:26:53 17° WSW 02:45:01 83° NNW 02:56:56 10° ENE visible
26 Jun 13.1 21:55:11 10° SSW 22:19:09 34° ESE 22:32:17 10° E visible
27 Jun 12.4 00:31:35 46° SW 00:40:51 73° SSE 00:56:42 10° ENE visible
27 Jun 12.1 02:45:50 10° W 03:06:40 78° N 03:18:05 10° ENE visible
27 Jun 13.6 20:01:45 10° SSE 20:22:49 - ESE 20:10:39 14° SE visible
27 Jun 12.8 22:15:02 10° SSW 22:36:12 45° SE 22:54:28 10° ENE visible
28 Jun 12.4 00:47:13 29° WSW 01:02:29 82° SSE 01:17:57 10° ENE visible
28 Jun 12.1 03:08:09 10° W 03:28:21 75° N 03:39:14 10° E visible
28 Jun 13.4 20:18:10 10° S 20:32:20 21° SE 20:46:55 10° E visible
28 Jun 12.7 22:35:21 10° SW 22:57:36 55° SE 23:16:16 10° ENE visible
